TimeEST,TemperatureF,Dew PointF,Humidity,Sea Level PressureIn,VisibilityMPH,Wind Direction,Wind SpeedMPH,Gust SpeedMPH,PrecipitationIn,Events,Conditions,WindDirDegrees,DateUTC
12:53 AM,23.0,17.1,78,30.22,9.0,WNW,16.1,-,0.00,,Overcast,290,2013-02-21 05:53:00
1:53 AM,21.9,16.0,78,30.24,9.0,NW,13.8,-,0.00,,Overcast,320,2013-02-21 06:53:00
2:53 AM,21.9,16.0,78,30.25,9.0,NW,12.7,-,0.00,Snow,Light Snow,320,2013-02-21 07:53:00
3:53 AM,21.9,17.1,82,30.25,5.0,NNW,13.8,-,0.00,Snow,Light Snow,330,2013-02-21 08:53:00
4:53 AM,19.9,14.0,78,30.26,9.0,NNW,18.4,25.3,0.00,Snow,Light Snow,330,2013-02-21 09:53:00
5:53 AM,19.0,12.9,77,30.29,10.0,NNW,19.6,-,0.00,,Overcast,330,2013-02-21 10:53:00
6:19 AM,19.4,12.2,74,30.28,10.0,NNW,18.4,26.5,N/A,,Overcast,330,2013-02-21 11:19:00
6:46 AM,19.4,12.2,74,30.28,8.0,NW,19.6,27.6,0.00,Snow,Light Snow,320,2013-02-21 11:46:00
6:53 AM,19.0,10.9,71,30.32,8.0,WNW,18.4,-,0.00,Snow,Light Snow,300,2013-02-21 11:53:00
7:53 AM,19.0,10.0,68,30.35,10.0,NNW,13.8,20.7,0.00,,Overcast,330,2013-02-21 12:53:00
8:53 AM,19.9,10.0,65,30.38,7.0,NNW,12.7,-,0.00,,Overcast,340,2013-02-21 13:53:00
9:53 AM,19.9,10.9,68,30.36,7.0,NNW,11.5,-,0.00,Snow,Light Snow,340,2013-02-21 14:53:00
10:53 AM,19.9,12.0,71,30.38,7.0,NW,10.4,-,0.00,Snow,Light Snow,320,2013-02-21 15:53:00
11:50 AM,21.2,12.2,68,30.36,7.0,NW,8.1,-,0.00,,Overcast,320,2013-02-21 16:50:00
11:53 AM,21.0,12.0,68,30.39,7.0,NNW,6.9,-,0.00,,Overcast,340,2013-02-21 16:53:00
12:53 PM,21.0,12.0,68,30.38,10.0,North,5.8,-,N/A,,Overcast,350,2013-02-21 17:53:00
1:00 PM,21.2,10.4,63,30.35,10.0,North,5.8,-,N/A,,Overcast,10,2013-02-21 18:00:00
1:10 PM,21.2,10.4,63,30.33,10.0,Variable,3.5,-,N/A,,Overcast,0,2013-02-21 18:10:00
1:42 PM,21.2,12.2,68,30.34,10.0,NW,5.8,-,N/A,,Overcast,320,2013-02-21 18:42:00
1:53 PM,21.0,12.9,71,30.38,10.0,Calm,Calm,-,N/A,,Mostly Cloudy,0,2013-02-21 18:53:00
2:53 PM,21.0,12.9,71,30.37,10.0,NNW,4.6,-,N/A,,Overcast,330,2013-02-21 19:53:00
3:53 PM,21.9,15.1,75,30.34,10.0,NNE,6.9,-,0.00,,Overcast,20,2013-02-21 20:53:00
4:08 PM,21.2,14.0,74,30.32,10.0,NNE,5.8,-,N/A,,Overcast,20,2013-02-21 21:08:00
4:53 PM,21.0,12.9,71,30.37,10.0,Calm,Calm,-,N/A,,Overcast,0,2013-02-21 21:53:00
5:53 PM,21.0,12.9,71,30.40,10.0,NNE,4.6,-,N/A,,Overcast,20,2013-02-21 22:53:00
6:53 PM,21.0,12.9,71,30.39,10.0,NNE,5.8,-,N/A,,Overcast,30,2013-02-21 23:53:00
7:53 PM,21.0,14.0,74,30.39,10.0,NE,5.8,-,N/A,,Mostly Cloudy,40,2013-02-22 00:53:00
8:11 PM,21.2,14.0,74,30.35,10.0,ENE,6.9,-,N/A,,Scattered Clouds,70,2013-02-22 01:11:00
8:53 PM,21.0,14.0,74,30.36,10.0,ENE,8.1,-,N/A,,Clear,70,2013-02-22 01:53:00
9:53 PM,21.0,12.9,71,30.34,10.0,ENE,9.2,-,N/A,,Clear,70,2013-02-22 02:53:00
10:53 PM,19.9,12.9,74,30.32,10.0,East,8.1,-,N/A,,Clear,80,2013-02-22 03:53:00
11:53 PM,19.9,12.9,74,30.30,10.0,ENE,6.9,-,N/A,,Clear,70,2013-02-22 04:53:00